This is the latest recevied weather packets stored in our database for station/object AG1T-20. If no packets are shown the sender has not sent any weather packets the latest 10 day(s).
| Time | Temp. | Humidity | Pressure | Rain* | Wind** | Luminosity | Snow |
|---|---|---|---|---|---|---|---|
| 1778005205 | 7.78° C | 94% | 1014.5 hPa | 1.27 mm | - | 40 W/m² | - |
| 1778004605 | 8.89° C | 94% | 1014.5 hPa | 1.02 mm | - | 67 W/m² | - |
| 1778004005 | 8.89° C | 92% | 1014.5 hPa | 1.02 mm | - | 67 W/m² | - |
| 1778003405 | 8.89° C | 91% | 1013.8 hPa | 0.76 mm | - | 96 W/m² | - |
| 1778002805 | 9.44° C | 90% | 1013.8 hPa | 0.51 mm | - | 90 W/m² | - |
| 1778002205 | 9.44° C | 88% | 1013.8 hPa | 0.51 mm | - | 50 W/m² | - |
| 1778001605 | 9.44° C | 90% | 1013.8 hPa | 0.51 mm | - | 126 W/m² | - |
| 1778001005 | 10° C | 91% | 1013.8 hPa | 0.76 mm | - | 245 W/m² | - |
| 1778000405 | 9.44° C | 93% | 1013.8 hPa | 0.76 mm | - | 273 W/m² | - |
| 1777999805 | 9.44° C | 93% | 1013.6 hPa | 1.02 mm | - | 165 W/m² | - |
| 1777999205 | 9.44° C | 93% | 1013.6 hPa | 1.52 mm | - | 81 W/m² | - |
| 1777998605 | 9.44° C | 93% | 1013.6 hPa | 1.52 mm | - | 85 W/m² | - |
| 1777998005 | 9.44° C | 92% | 1013.6 hPa | 1.52 mm | - | 127 W/m² | - |
| 1777997405 | 9.44° C | 93% | 1013.6 hPa | 1.27 mm | - | 105 W/m² | - |
| 1777996805 | 8.89° C | 94% | 1013.6 hPa | 1.27 mm | - | 46 W/m² | - |
| 1777996205 | 8.89° C | 93% | 1013.3 hPa | 0.76 mm | - | 29 W/m² | - |
| 1777995605 | 8.89° C | 93% | 1013.3 hPa | 0.25 mm | - | 17 W/m² | - |
| 1777995005 | 8.89° C | 92% | 1013.3 hPa | 0.25 mm | - | 21 W/m² | - |
| 1777994405 | 8.33° C | 92% | 1013.3 hPa | 0.25 mm | - | 33 W/m² | - |
| 1777993805 | 8.33° C | 91% | 1013.3 hPa | 0.51 mm | - | 17 W/m² | - |
| 1777993205 | 9.44° C | 91% | 1013.3 hPa | 0.25 mm | - | 28 W/m² | - |
| 1777992605 | 10° C | 91% | 1012.9 hPa | 0.25 mm | - | 37 W/m² | - |
| 1777992005 | 10° C | 92% | 1012.9 hPa | 0.51 mm | - | 33 W/m² | - |
| 1777991405 | 10° C | 92% | 1012.9 hPa | 0.51 mm | - | 26 W/m² | - |
| 1777990805 | 10° C | 91% | 1012.9 hPa | 0.51 mm | - | 30 W/m² | - |
* Rain latest hour (hover to see other rain measurements)
** Current wind speed in m/s (hover to see current wind gust speed)